Flag for Poland Weather past 2 weeks in Toruń, Poland

Now
67 °F

Passing clouds.


Feels Like: 67 °F
Forecast: 62 / 92 °F
Wind: 1 mph from Northeast

Location: Torun

Current Time: Aug 4, 2015 at 1:37:28 AM

Latest Report: Aug 4, 2015 at 12:00 AM


Visibility: 16 mi

Pressure: 30.11 "Hg

Humidity: 72%

Dew point: 58 °F

Location of ToruńLocation

Historic Weather in Toruń — Graph

°F

Toruń temperature yesterday

Maximum temperature yesterday: 88 °F (at 4:00 PM)
Minimum temperature yesterday: 55 °F (at 5:00 AM)
Average temperature yesterday: 75 °F

Past Weeks' High & Low Weather Summary

 TemperatureHumidityPressure
High88 °F (Aug 3, 4:00 PM)99% (Jul 23, 5:00 AM)30.16 "Hg (Jul 23, 5:00 AM)
Low46 °F (Jul 27, 4:00 AM)25% (Aug 3, 5:00 PM)29.59 "Hg (Jul 28, 2:00 PM)
Average65 °F68%29.88 "Hg
* Reported Jul 19 10:00 PM — Aug 3 10:00 PM, Toruń, Weather by CustomWeather, © 2015

Note: Actual official high and low records may vary slightly from our data, if they occured in-between our weather recording intervals... More about our weather records

Advertising

Toruń weather history for previous 24 hours

 ConditionsComfort  
Time TempWeatherWind HumidityBarometerVisibility
10:00 PM
Mon, Aug 3
73 °FPassing clouds.1 mph57%30.10 "Hg16 mi
9:00 PM76 °FPassing clouds.2 mph45%30.09 "Hg16 mi
8:00 PM81 °FScattered clouds.1 mph37%30.07 "Hg25 mi
7:00 PM84 °FPassing clouds.2 mph29%30.07 "Hg28 mi
6:00 PM87 °FPassing clouds.2 mph27%30.07 "Hg22 mi
5:00 PM87 °FScattered clouds.1 mph25%30.08 "Hg22 mi
4:00 PM88 °FScattered clouds.1 mph26%30.08 "Hg25 mi
3:00 PM88 °FScattered clouds.2 mph28%30.09 "Hg17 mi
2:00 PM87 °FScattered clouds.2 mph28%30.10 "Hg19 mi
1:00 PM85 °FPassing clouds.2 mph29%30.11 "Hg19 mi
12:00 PM84 °FPassing clouds.2 mph29%30.12 "Hg22 mi
11:00 AM82 °FPassing clouds.1 mph35%30.12 "Hg22 mi
10:00 AM79 °FPassing clouds.1 mph40%30.12 "Hg19 mi
9:00 AM75 °FSunny.1 mph46%30.12 "Hg16 mi
8:00 AM70 °FPassing clouds.2 mph58%30.12 "Hg14 mi
7:00 AM65 °FScattered clouds.1 mph73%30.13 "Hg13 mi
5:00 AM55 °FPassing clouds.No wind85%30.13 "Hg19 mi
4:00 AM56 °FClear.1 mph80%30.12 "Hg22 mi
3:00 AM57 °FClear.1 mph75%30.13 "Hg22 mi
2:00 AM58 °FClear.1 mph72%30.14 "Hg25 mi
1:00 AM65 °FClear.2 mph57%30.13 "Hg28 mi
Weather by CustomWeather, © 2015

See weather overviewHow to use our weather pages